This demonstration page uses our WeatherBlox Daily Observations layout. Learn more.

Left ArrowRight Arrow

41.55636, -103.73856

Hourly Observations for October 24, 2018

Temp ( °F °C ) Dew Point ( °F °C ) Humidity (%) Winds ( mph kmh ) Pressure ( in mb ) Visibility ( mi km ) Precip ( " mm )
12:58 am 00:58 Cloudy 46 8 44 6.8 92 92 S 14 22 30.05 1018 10 16 N/A
1:58 am 01:58 Cloudy 46 8 44 6.9 93 93 S 14 22 30.02 1017 10 16 N/A
2:58 am 02:58 Partly Cloudy 46 7.7 44 6.8 94 94 S 8 13 30.02 1017 10 16 N/A
3:58 am 03:58 Mostly Cloudy 46 7.7 44 6.8 94 94 SSW 6 9 30.01 1016 10 16 N/A
4:58 am 04:58 Mostly Cloudy with Light Showers 46 7.6 44 6.9 95 95 SSW 8 13 30.03 1017 10 16 N/A
5:58 am 05:58 Cloudy with Light Rain 46 7.9 45 7.2 95 95 S 8 13 30.03 1017 7 11 0.01 0.25
6:58 am 06:58 Cloudy 46 7.9 45 7.2 95 95 SSW 7 11 30.02 1017 10 16 N/A
7:58 am 07:58 Cloudy with Light Showers 46 8 45 7.4 96 96 S 6 9 30.04 1017 6 10 0.01 0.25
8:58 am 08:58 Mostly Cloudy with Mist and Fog 47 8.4 46 7.9 97 97 SSW 5 7 30.04 1017 5 8 N/A
9:58 am 09:58 Mostly Cloudy 49 9.6 48 8.8 95 95 SSW 10 17 30.03 1017 7 11 N/A
10:58 am 10:58 Mostly Cloudy 51 10.8 49 9.5 92 92 SW 8 13 30.02 1017 10 16 N/A
11:58 am 11:58 Mostly Sunny 56 13.1 49 9.3 78 78 SSW 10 17 30.00 1016 10 16 N/A
12:58 pm 12:58 Mostly Sunny 57 13.9 48 8.7 71 71 S 12 19 29.97 1015 10 16 N/A
1:58 pm 13:58 Sunny 58 14.4 46 7.7 64 64 S 12 19 29.93 1014 10 16 N/A
2:58 pm 14:58 Sunny 57 14.1 47 8.3 68 68 S 13 20 29.91 1013 10 16 N/A
3:58 pm 15:58 Sunny 58 14.2 46 7.6 65 65 S 14 22 29.91 1013 10 16 N/A
4:58 pm 16:58 Sunny 56 13.6 47 8.1 70 70 S 13 20 29.91 1013 10 16 N/A
5:58 pm 17:58 Sunny 53 11.5 47 8.1 80 80 S 10 17 29.92 1013 10 16 N/A
6:58 pm 18:58 Mostly Clear 49 9.5 46 7.7 89 89 SSE 8 13 29.94 1014 10 16 N/A
7:58 pm 19:58 Clear 47 8.5 46 7.5 94 94 S 8 13 29.94 1014 10 16 N/A
8:58 pm 20:58 Cloudy 47 8.6 46 7.9 95 95 SSW 8 13 29.94 1014 10 16 N/A
9:58 pm 21:58 Mostly Cloudy 47 8.3 46 7.7 96 96 SSW 9 15 29.94 1014 10 16 N/A
10:58 pm 22:58 Mostly Cloudy with Fog 47 8.1 46 7.5 96 96 SW 12 19 29.94 1014 1 1 N/A

Powered by AerisWeather